Location: Rayville (historical)
(39.9992°N, 99.6815°W)
Time: 19:47:16
(UTC+00:00)

STARLINK-68 - Pass Details

Date: 18 February 2020
Orbit: 529 x 530 km, 53.0° (Epoch: 30 March)

Event Time Altitude Azimuth Distance (km) Brightness Sun altitude
Rises 02:03:50 0° 240° (WSW) 2,653 8.1 -21.2°
Reaches altitude 10° 02:06:04 10° 244° (WSW) 1,767 7.1 -21.6°
Maximum altitude 02:10:01 57° 324° (NW) 624 4.0 -22.3°
Enters shadow 02:10:39 50° 4° (N) 679 4.0 -22.5°
